Voltar ao catálogo

GONETS M 21

AtivoComunicaçõesPO
NORAD 47228·PAYLOAD·🇷🇺 Russia

Lançado Dec 3, 2020 de Plesetsk Cosmodrome

Loading…

Próximas Passagens (próximas 24 horas)

TLE

AtualizadoSource: Space-Track

Época: Sep 14, 2026, 13:45 UTC

1 47228U 20091B   26257.57308667  .00000011  00000-0  55208-5 0  9996
2 47228  82.4911 245.5147 0014895   5.4475 354.6764 12.42888952262172

Acompanhe GONETS M 21 em tempo real com AllMySat

Download on the App Store